Theta_e
306 306 306 304 304 304 303 303 299 301 302 306 308 308 308 309 308 307 304 305 303 303 303 304 305 307 307 307 309 309 309 307 306 308 310 307 308 309 310 310 309 310 310 311
304 305 304 302 304 304 304 304 304 303 303 308 309 310 308 307 306 305 305 303 302 303 305 303 305 306 306 308 310 310 308 307 308 307 309 307 310 311 311 311 310 310 310 310
299 303 303 299 304 304 304 306 305 300 305 308 306 306 306 305 304 304 304 303 302 305 304 305 305 306 306 308 309 309 310 310 309 308 306 308 309 308 308 308 307 306 307 310
302 303 294 305 311 307 305 307 307 305 307 308 308 308 308 307 306 305 304 303 306 306 306 308 306 308 309 310 310 309 309 308 308 308 308 308 310 311 311 311 311 307 307 308
300 300 302 304 307 306 304 304 309 306 307 308 308 307 303 305 307 305 305 307 307 308 308 307 307 309 309 309 309 308 308 307 310 310 311 311 311 312 313 312 310 309 310 311
302 296 294 304 309 312 311 299 309 308 307 307 307 301 300 305 307 305 307 309 308 308 308 307 309 310 309 308 309 309 310 309 311 312 312 310 311 311 312 312 312 312 313 314
300 300 303 310 311 312 299 302 311 309 309 308 305 306 308 308 306 308 308 308 308 308 307 307 309 310 307 309 308 310 311 311 313 314 313 313 314 315 314 313 315 314 315 317
302 299 297 314 310 303 311 313 311 310 309 308 307 307 305 306 306 306 307 307 308 307 309 309 309 309 308 310 312 313 313 312 314 315 313 315 316 316 316 315 315 314 317 316
305 306 316 315 314 316 315 312 311 310 309 308 307 305 306 306 306 308 307 307 310 307 309 310 310 311 310 312 313 313 312 312 314 315 316 316 314 314 313 315 313 311 313 312
310 310 312 314 315 315 315 312 312 310 308 309 307 306 305 307 306 307 309 306 309 307 308 309 311 312 312 313 313 313 313 313 315 315 315 315 313 310 307 307 308 308 310 310
307 310 313 314 314 314 313 312 309 309 309 308 308 305 307 307 308 309 307 309 309 309 309 310 311 312 313 313 314 313 315 314 316 315 315 313 310 308 307 303 300 304 304 308
305 313 311 312 314 313 312 310 308 307 307 309 308 306 308 308 309 309 310 310 310 312 310 311 312 311 314 315 315 314 313 314 312 314 314 314 311 307 293 295 294 292 292 295
313 317 315 314 314 314 312 310 308 308 309 308 308 309 309 309 310 306 311 309 310 309 311 312 312 312 314 315 316 315 316 316 313 313 313 312 313 312 308 299 296 293 292 291
318 318 314 314 313 314 312 310 309 309 310 310 309 309 310 309 309 308 307 311 310 311 311 312 312 312 314 314 315 315 316 305 314 313 313 312 312 311 310 308 307 304 293 296
317 318 316 317 315 314 313 310 308 308 309 309 309 310 311 308 309 307 310 311 312 311 308 309 311 313 316 316 315 316 313 311 313 315 314 311 311 310 310 309 307 305 304 298
319 320 316 314 314 313 312 310 309 308 309 309 309 309 310 311 311 311 312 312 311 310 309 310 312 315 317 317 316 316 313 307 306 313 312 311 310 309 309 308 308 306 302 301
314 315 315 314 314 314 313 311 310 310 309 310 310 311 311 310 311 310 312 313 313 312 313 313 313 315 317 318 317 316 315 314 308 312 311 310 310 309 309 308 307 307 306 300
315 316 318 318 316 315 314 313 311 311 310 311 312 311 311 311 310 311 312 314 312 313 314 316 316 317 317 316 317 317 314 313 311 310 310 309 309 310 309 307 306 306 306 303
316 315 315 316 318 317 315 313 312 313 312 312 311 311 312 312 313 313 314 312 311 311 313 316 306 310 318 312 309 314 313 312 312 312 312 304 310 309 307 306 305 305 305 304
315 316 316 316 318 318 316 314 313 312 312 312 311 311 310 312 314 313 313 312 313 314 318 318 316 317 317 314 305 313 313 313 313 312 310 309 308 309 308 300 304 304 304 304
315 315 316 317 317 317 317 315 313 312 313 312 311 311 312 314 314 314 313 310 315 316 316 312 316 315 315 309 310 313 312 313 312 313 312 311 311 309 308 307 306 304 304 304
313 313 314 315 315 315 317 313 314 314 313 311 312 312 311 312 312 312 316 314 316 301 314 315 316 308 310 297 314 312 314 314 314 313 314 314 311 310 310 308 306 305 304 304
313 315 315 313 314 315 315 313 312 311 311 313 313 313 311 311 311 309 308 317 317 305 315 315 295 291 291 313 314 314 313 313 314 314 314 314 314 313 311 309 306 306 305 303
314 314 315 315 314 311 310 309 310 311 312 314 315 315 314 310 310 314 315 305 301 304 313 311 303 290 288 314 314 312 313 313 315 313 313 298 313 313 313 311 309 309 307 301
312 313 315 315 313 310 309 310 311 311 313 314 315 315 315 314 312 312 314 313 299 305 314 297 291 290 309 312 314 313 314 313 315 313 314 314 314 314 314 314 311 310 308 307
312 311 309 312 314 314 313 312 310 311 310 310 310 312 312 314 314 312 314 308 313 306 313 313 313 312 312 312 313 312 312 314 312 313 311 315 314 315 315 314 312 310 308 308
311 304 308 309 310 310 312 312 311 308 309 309 308 311 312 312 311 309 306 311 312 312 313 313 313 309 314 313 312 313 314 314 306 315 314 314 315 314 315 314 313 313 310 307
Wind_Speed
6 4 4 3 7 7 10 9 6 11 11 9 10 11 9 10 5 10 9 12 12 10 8 11 10 9 11 9 9 9 9 9 9 12 11 8 10 9 7 8 6 6 6 7
6 3 1 1 3 5 6 6 8 10 6 4 6 7 9 6 11 10 13 12 11 8 11 10 8 9 9 10 9 11 10 8 7 8 9 10 13 13 10 11 11 11 10 9
8 4 6 2 10 10 10 9 10 10 11 8 5 3 6 6 2 6 12 10 7 9 9 8 11 8 8 7 10 10 11 11 5 6 5 9 9 9 9 9 7 9 10 10
4 5 1 8 9 5 10 8 9 11 10 9 9 6 6 8 11 12 8 8 8 7 8 9 7 6 6 7 8 9 9 11 10 5 10 10 10 9 8 7 8 4 6 7
5 3 7 4 10 9 11 6 9 11 10 5 4 2 9 6 10 8 10 6 7 7 8 7 5 7 7 8 8 8 8 8 10 8 8 9 6 6 6 5 4 5 5 6
4 3 4 9 9 9 9 2 7 10 10 10 9 6 5 3 10 9 4 8 6 8 6 6 6 6 7 8 8 8 9 8 8 8 8 7 9 10 8 7 7 4 5 5
3 1 8 10 10 10 5 7 10 9 8 8 7 8 8 11 5 7 5 5 3 6 6 4 5 7 8 8 8 7 7 6 6 4 5 5 6 6 5 4 4 4 6 7
4 3 6 12 7 9 6 4 6 6 8 6 4 7 9 4 5 3 5 3 3 4 1 3 5 6 8 7 6 5 5 3 2 5 6 5 5 2 1 3 4 4 6 4
8 6 6 9 7 5 5 7 7 6 6 4 5 5 6 3 3 2 5 4 2 3 1 3 5 5 5 5 4 5 4 3 7 7 8 6 5 8 8 7 6 8 5 3
6 5 8 5 4 5 7 6 6 6 4 3 6 6 2 2 2 5 3 1 4 3 1 5 5 4 4 3 4 5 4 3 3 8 5 5 7 9 10 10 8 7 7 8
8 9 6 5 6 5 5 5 5 6 5 4 8 2 3 4 4 3 3 2 3 3 4 5 3 4 5 5 3 2 1 4 2 4 4 7 8 8 8 8 7 9 9 8
6 11 9 8 5 4 2 4 5 4 4 3 8 3 4 3 5 3 3 1 0 1 5 2 4 4 4 4 4 5 4 4 4 3 1 3 7 7 9 7 1 5 5 10
5 7 8 7 4 2 3 4 4 3 4 4 5 3 3 6 5 4 2 3 3 4 4 5 4 3 4 5 5 4 5 2 5 4 3 1 3 6 8 3 4 7 7 7
2 4 3 2 3 3 4 6 2 3 3 4 5 3 2 5 6 4 1 3 1 3 5 3 5 3 3 3 4 5 8 6 5 4 6 4 4 5 5 5 4 7 6 1
2 3 5 3 5 5 6 6 4 5 5 4 4 3 4 3 4 4 5 4 5 7 5 3 2 2 3 4 8 4 4 5 4 6 6 2 5 4 5 5 5 6 6 2
8 8 3 4 5 5 7 7 7 5 6 5 5 4 2 4 3 4 5 6 8 7 7 6 5 3 2 5 6 5 3 6 9 8 3 5 5 5 5 4 4 5 7 7
13 10 5 7 6 8 7 7 7 6 6 6 7 6 4 4 6 5 6 7 5 7 8 8 7 2 1 6 4 5 4 6 10 6 5 5 5 4 4 4 5 4 6 5
11 12 11 10 9 9 8 8 7 6 6 6 6 7 6 7 5 5 6 6 6 8 8 7 5 1 6 2 5 6 8 5 5 5 4 5 5 3 4 5 5 5 4 6
12 12 13 13 13 11 9 8 8 6 6 7 8 8 7 7 6 5 6 7 9 9 8 8 5 4 7 3 6 9 6 5 3 3 2 3 4 4 5 6 5 4 5 5
14 14 14 14 13 10 10 5 7 6 8 8 7 9 8 7 8 8 7 7 7 5 7 7 6 8 6 3 7 9 9 4 4 3 4 5 5 3 3 2 4 5 4 4
16 16 16 16 13 10 4 5 6 8 7 8 10 9 8 7 5 8 8 7 8 7 6 6 9 3 7 4 6 9 4 3 5 5 3 4 1 3 3 4 4 4 4 4
12 10 11 12 11 11 4 4 5 6 9 8 9 10 9 7 6 7 9 9 4 5 7 8 9 9 3 7 10 5 7 2 4 5 8 2 3 3 2 3 3 3 3 3
11 13 11 10 9 9 3 4 3 4 4 10 11 12 8 7 6 6 7 10 8 9 11 8 7 4 3 6 9 10 7 4 5 7 6 6 2 2 3 3 4 3 3 4
14 12 8 8 7 5 5 4 4 5 7 13 12 12 5 5 7 6 6 4 4 7 9 5 5 7 5 8 11 8 8 8 2 5 6 5 8 4 2 2 2 1 1 4
15 13 13 10 7 4 5 4 5 8 12 13 3 4 7 7 6 4 5 8 11 11 11 9 8 8 6 9 12 10 12 7 2 5 10 7 6 9 3 1 2 1 2 1
10 9 7 12 11 6 6 5 6 8 8 9 8 7 6 7 7 5 7 7 7 11 10 9 10 10 10 11 12 11 10 8 3 8 9 8 9 9 4 2 3 4 4 2
6 5 7 8 9 9 11 6 7 3 6 7 6 5 6 7 8 7 8 6 6 9 9 9 9 11 11 11 9 10 10 6 9 9 6 8 8 9 4 4 4 3 4 4
Wind_Direction
48 40 29 47 34 32 9 16 340 356 37 27 12 13 25 29 1 14 28 26 30 35 353 9 16 9 15 7 12 359 14 41 13 353 9 15 360 3 16 9 18 349 34 40
149 115 27 90 97 360 27 359 349 356 41 10 49 340 30 19 16 350 30 28 55 2 15 19 4 23 -0 18 1 11 41 28 22 14 19 22 10 16 17 21 24 26 18 17
183 91 246 36 22 6 355 356 13 354 6 359 65 92 45 73 319 4 46 36 27 18 11 9 33 18 22 2 18 10 17 16 40 33 27 18 18 22 22 21 30 28 19 19
39 249 197 72 45 347 342 48 26 3 9 5 -0 11 61 32 18 41 24 44 19 14 24 27 31 20 15 14 24 17 15 9 359 51 12 12 16 23 25 16 32 27 12 19
302 186 98 150 48 3 344 30 41 359 345 6 348 68 62 36 53 49 57 32 19 5 28 52 26 24 8 349 19 4 10 18 349 15 19 20 57 43 24 38 23 15 19 28
346 293 40 64 27 350 312 158 8 354 351 351 341 327 116 128 76 68 38 39 14 39 66 40 22 355 10 355 7 6 1 20 343 17 44 43 41 39 33 45 55 81 88 58
86 263 92 32 349 311 290 33 3 359 3 358 5 30 62 79 79 65 30 40 29 61 58 24 7 356 353 351 4 354 2 355 349 10 76 62 23 19 19 357 349 6 42 52
270 280 83 11 2 5 15 29 359 22 8 42 54 79 85 87 59 59 58 46 11 74 62 22 21 348 341 2 341 9 44 9 69 61 40 30 48 6 342 352 24 67 89 113
4 53 51 30 49 37 16 29 20 25 40 48 79 84 114 109 68 42 38 70 26 75 315 24 14 339 349 32 338 80 100 80 37 33 56 37 27 31 38 36 39 32 73 125
135 71 34 74 70 47 39 44 42 59 45 44 78 90 81 93 75 68 75 260 72 105 257 30 8 349 42 27 91 59 53 85 68 79 27 26 39 59 35 19 8 24 18 25
40 19 78 123 56 68 75 62 62 46 61 74 88 108 104 71 97 114 108 61 105 170 43 38 32 63 76 66 50 71 233 65 7 77 75 105 57 22 69 52 33 26 11 43
38 32 358 45 80 101 99 62 53 89 104 67 86 104 69 87 110 117 110 86 258 261 80 102 76 91 71 35 55 24 1 355 52 345 240 19 147 116 43 56 5 113 59 38
39 27 52 64 75 72 80 79 91 97 115 111 95 88 81 93 101 83 49 108 303 110 120 114 120 127 69 38 2 341 305 59 299 319 329 29 301 195 141 159 274 303 110 93
63 347 85 206 76 130 111 96 134 86 129 108 122 112 125 141 135 144 298 327 321 176 141 99 148 112 46 357 313 292 285 268 339 337 324 345 8 50 45 33 91 148 220 123
313 13 317 50 144 154 145 160 164 173 156 167 131 156 143 220 173 154 238 248 221 142 147 209 209 296 273 226 245 253 350 20 338 303 302 346 4 47 42 44 34 41 39 217
309 285 278 246 223 183 193 189 218 160 173 180 151 186 186 189 156 199 205 222 208 169 160 205 246 229 337 357 314 281 350 288 264 290 8 32 32 24 23 36 40 56 48 12
1 343 281 263 250 235 227 221 233 175 171 198 166 173 163 190 207 225 238 226 219 227 193 187 232 178 331 236 334 345 304 287 261 279 52 11 23 15 14 13 20 50 100 61
350 342 326 299 282 267 233 227 222 189 186 202 176 185 183 191 236 220 234 185 211 232 199 189 249 103 269 343 342 297 293 291 24 27 27 36 342 0 18 13 27 19 30 133
338 332 324 314 294 267 249 214 218 196 176 194 194 202 208 210 216 233 212 222 195 188 179 218 144 265 276 62 297 296 293 336 25 54 9 193 229 13 27 4 8 36 13 24
339 334 325 314 304 266 261 203 190 178 186 197 190 220 206 219 208 218 218 225 217 210 186 173 211 245 251 206 262 286 323 332 339 73 54 343 18 348 61 152 345 22 31 21
349 343 334 323 315 289 214 281 176 178 191 172 218 228 205 206 217 218 233 223 221 192 201 184 234 272 257 307 281 272 189 327 316 326 359 351 138 327 25 3 22 23 17 11
331 327 330 328 315 317 194 220 220 194 180 210 229 230 217 198 213 245 219 247 218 210 213 220 219 220 299 311 265 249 271 286 296 310 322 6 338 334 358 356 13 10 20 19
326 324 327 332 330 330 283 232 237 202 231 242 234 231 232 224 216 212 233 211 223 178 241 230 112 152 175 263 270 293 267 238 288 315 314 322 275 313 317 2 353 2 10 4
334 329 338 325 328 320 287 292 269 254 258 261 241 235 215 234 246 228 215 171 209 159 229 240 168 179 206 255 271 267 264 298 237 275 291 261 282 263 245 279 267 23 48 209
344 335 325 316 285 269 234 239 230 245 237 249 225 211 224 220 231 237 218 191 189 196 224 203 184 185 222 248 258 266 277 256 227 266 266 296 273 286 274 259 270 323 302 280
338 350 333 323 313 283 250 200 208 210 221 225 237 207 215 217 219 255 251 228 190 205 236 225 208 207 233 241 249 254 266 236 259 243 256 261 273 276 287 227 222 200 223 247
342 33 341 352 350 348 318 223 243 323 263 251 255 234 218 213 208 228 255 240 232 204 234 246 232 214 230 233 241 245 257 238 249 269 281 280 272 272 268 238 236 234 234 214